Year,Month,Day,Hour,Minute,Value (Times are PST for temperature in C)
2016,12,13,09,06,-1.10
2016,12,13,09,07,-1.10
2016,12,13,09,08,-1.10
2016,12,13,09,09,-1.10
2016,12,13,09,10,-1.00
2016,12,13,09,11,-1.00
2016,12,13,09,12,-1.00
2016,12,13,09,13,-0.90
2016,12,13,09,14,-0.90
2016,12,13,09,15,-0.90
2016,12,13,09,16,-0.90
2016,12,13,09,17,-0.80
2016,12,13,09,18,-0.80
2016,12,13,09,19,-0.80
2016,12,13,09,20,-0.80
2016,12,13,09,21,-0.80
2016,12,13,09,22,-0.70
2016,12,13,09,23,-0.70
2016,12,13,09,24,-0.70
2016,12,13,09,25,-0.70
2016,12,13,09,26,-0.70
2016,12,13,09,27,-0.70
2016,12,13,09,28,-0.60
2016,12,13,09,29,-0.60
2016,12,13,09,30,-0.60
2016,12,13,09,31,-0.60
2016,12,13,09,32,-0.60
2016,12,13,09,33,-0.60
2016,12,13,09,34,-0.60
2016,12,13,09,35,-0.50
2016,12,13,09,36,-0.50
2016,12,13,09,37,-0.50
2016,12,13,09,38,-0.50
2016,12,13,09,39,-0.50
2016,12,13,09,40,-0.50
2016,12,13,09,41,-0.40
2016,12,13,09,42,-0.40
2016,12,13,09,43,-0.40
2016,12,13,09,44,-0.30
2016,12,13,09,45,-0.30
2016,12,13,09,46,-0.30
2016,12,13,09,47,-0.30
2016,12,13,09,48,-0.30
2016,12,13,09,49,-0.20
2016,12,13,09,50,-0.20
2016,12,13,09,51,-0.20
2016,12,13,09,52,-0.20
2016,12,13,09,53,-0.10
2016,12,13,09,54,-0.10
2016,12,13,09,55,-0.10
2016,12,13,09,56,-0.10
2016,12,13,09,57,-0.10
2016,12,13,09,58,0.00
2016,12,13,09,59,0.00
2016,12,13,10,00,0.00
2016,12,13,10,01,0.00
2016,12,13,10,02,0.00
2016,12,13,10,03,0.00
2016,12,13,10,04,0.00
2016,12,13,10,05,0.00
2016,12,13,10,06,0.00
2016,12,13,10,07,0.00
2016,12,13,10,08,0.00
2016,12,13,10,09,0.00
2016,12,13,10,10,0.00
2016,12,13,10,11,0.10
2016,12,13,10,12,0.10
2016,12,13,10,13,0.10
2016,12,13,10,14,0.10
2016,12,13,10,15,0.10
2016,12,13,10,16,0.10
2016,12,13,10,17,0.20
2016,12,13,10,18,0.20
2016,12,13,10,19,0.20
2016,12,13,10,20,0.20
2016,12,13,10,21,0.30
2016,12,13,10,22,0.30
2016,12,13,10,23,0.30
2016,12,13,10,24,0.30
2016,12,13,10,25,0.30
2016,12,13,10,26,0.40
2016,12,13,10,27,0.40
2016,12,13,10,28,0.40
2016,12,13,10,29,0.40
2016,12,13,10,30,0.40
2016,12,13,10,31,0.40
2016,12,13,10,32,0.40
2016,12,13,10,33,0.50
2016,12,13,10,34,0.50
2016,12,13,10,35,0.50
2016,12,13,10,36,0.50
2016,12,13,10,37,0.50
2016,12,13,10,38,0.60
2016,12,13,10,39,0.60
2016,12,13,10,40,0.60
2016,12,13,10,41,0.60
2016,12,13,10,42,0.60
2016,12,13,10,43,0.60
2016,12,13,10,44,0.60
2016,12,13,10,45,0.60
2016,12,13,10,46,0.60
2016,12,13,10,47,0.60
2016,12,13,10,48,0.70
2016,12,13,10,49,0.70
2016,12,13,10,50,0.70
2016,12,13,10,51,0.70
2016,12,13,10,52,0.70
2016,12,13,10,53,0.70
2016,12,13,10,54,0.70
2016,12,13,10,55,0.70
2016,12,13,10,56,0.70
2016,12,13,10,57,0.70
2016,12,13,10,58,0.70
2016,12,13,10,59,0.70
2016,12,13,11,00,0.70
2016,12,13,11,01,0.70
2016,12,13,11,02,0.70
2016,12,13,11,03,0.70
2016,12,13,11,04,0.70
2016,12,13,11,05,0.70
2016,12,13,11,06,0.70
2016,12,13,11,07,0.70
2016,12,13,11,08,0.70
2016,12,13,11,09,0.80
2016,12,13,11,10,0.80
2016,12,13,11,11,0.80
2016,12,13,11,12,0.80
2016,12,13,11,13,0.80
2016,12,13,11,14,0.80
2016,12,13,11,15,0.80
2016,12,13,11,16,0.80
2016,12,13,11,17,0.90
2016,12,13,11,18,0.90
2016,12,13,11,19,0.90
2016,12,13,11,20,0.90
2016,12,13,11,21,0.90
2016,12,13,11,22,1.00
2016,12,13,11,23,1.00
2016,12,13,11,24,1.00
2016,12,13,11,25,1.00
2016,12,13,11,26,1.00
2016,12,13,11,27,1.00
2016,12,13,11,28,1.00
2016,12,13,11,29,1.00
2016,12,13,11,30,1.00
2016,12,13,11,31,1.00
2016,12,13,11,32,1.10
2016,12,13,11,33,1.10
2016,12,13,11,34,1.10
2016,12,13,11,35,1.10
2016,12,13,11,36,1.10
2016,12,13,11,37,1.00
2016,12,13,11,38,1.00
2016,12,13,11,39,1.00
2016,12,13,11,40,1.00
2016,12,13,11,41,1.10
2016,12,13,11,42,1.10
2016,12,13,11,43,1.10
2016,12,13,11,44,1.10
2016,12,13,11,45,1.10
2016,12,13,11,46,1.10
2016,12,13,11,47,1.20
2016,12,13,11,48,1.20
2016,12,13,11,49,1.20
2016,12,13,11,50,1.20
2016,12,13,11,51,1.20
2016,12,13,11,52,1.20
2016,12,13,11,53,1.20
2016,12,13,11,54,1.20
2016,12,13,11,55,1.20
2016,12,13,11,56,1.30
2016,12,13,11,57,1.30
2016,12,13,11,58,1.30
2016,12,13,11,59,1.30
2016,12,13,12,00,1.30
2016,12,13,12,01,1.30
2016,12,13,12,02,1.30
2016,12,13,12,03,1.30
2016,12,13,12,04,1.40
2016,12,13,12,05,1.40
2016,12,13,12,06,1.40
2016,12,13,12,07,1.40
2016,12,13,12,08,1.40
2016,12,13,12,09,1.40
2016,12,13,12,10,1.40
2016,12,13,12,11,1.40
2016,12,13,12,12,1.30
2016,12,13,12,13,1.30
2016,12,13,12,14,1.30
2016,12,13,12,15,1.30
2016,12,13,12,16,1.30
2016,12,13,12,17,1.30
2016,12,13,12,18,1.30
2016,12,13,12,19,1.30
2016,12,13,12,20,1.30
2016,12,13,12,21,1.30
2016,12,13,12,22,1.30
2016,12,13,12,23,1.30
2016,12,13,12,24,1.30
2016,12,13,12,25,1.20
2016,12,13,12,26,1.20
2016,12,13,12,27,1.20
2016,12,13,12,28,1.20
2016,12,13,12,29,1.20
2016,12,13,12,30,1.20
2016,12,13,12,31,1.20
2016,12,13,12,32,1.30
2016,12,13,12,33,1.30
2016,12,13,12,34,1.30
2016,12,13,12,35,1.20
2016,12,13,12,36,1.20
2016,12,13,12,37,1.20
2016,12,13,12,38,1.20
2016,12,13,12,39,1.20
2016,12,13,12,40,1.20
2016,12,13,12,41,1.20
2016,12,13,12,42,1.20
2016,12,13,12,43,1.20
2016,12,13,12,44,1.20
2016,12,13,12,45,1.30
2016,12,13,12,46,1.30
2016,12,13,12,47,1.30
2016,12,13,12,48,1.30
2016,12,13,12,49,1.30
2016,12,13,12,50,1.30
2016,12,13,12,51,1.30
2016,12,13,12,52,1.30
2016,12,13,12,53,1.30
2016,12,13,12,54,1.30
2016,12,13,12,55,1.30
2016,12,13,12,56,1.30
2016,12,13,12,57,1.30
2016,12,13,12,58,1.30
2016,12,13,12,59,1.30
2016,12,13,13,00,1.30
2016,12,13,13,01,1.30
2016,12,13,13,02,1.30
2016,12,13,13,03,1.30
2016,12,13,13,04,1.30
2016,12,13,13,05,1.30
2016,12,13,13,06,1.30
2016,12,13,13,07,1.40
2016,12,13,13,08,1.40
2016,12,13,13,09,1.40
2016,12,13,13,10,1.30
2016,12,13,13,11,1.30
2016,12,13,13,12,1.30
2016,12,13,13,13,1.30
2016,12,13,13,14,1.30
2016,12,13,13,15,1.30
2016,12,13,13,16,1.30
2016,12,13,13,17,1.30
2016,12,13,13,18,1.30
2016,12,13,13,19,1.30
2016,12,13,13,20,1.30
2016,12,13,13,21,1.30
2016,12,13,13,22,1.30
2016,12,13,13,23,1.20
2016,12,13,13,24,1.30
2016,12,13,13,25,1.30
2016,12,13,13,26,1.30
2016,12,13,13,27,1.30
2016,12,13,13,28,1.30
2016,12,13,13,29,1.30
2016,12,13,13,30,1.30
2016,12,13,13,31,1.30
2016,12,13,13,32,1.30
2016,12,13,13,33,1.30
2016,12,13,13,34,1.30
2016,12,13,13,35,1.30
2016,12,13,13,36,1.30
2016,12,13,13,37,1.30
2016,12,13,13,38,1.30
2016,12,13,13,39,1.30
2016,12,13,13,40,1.30
2016,12,13,13,41,1.30
2016,12,13,13,42,1.30
2016,12,13,13,43,1.30
2016,12,13,13,44,1.30
2016,12,13,13,45,1.30
2016,12,13,13,46,1.30
2016,12,13,13,47,1.30
2016,12,13,13,48,1.30
2016,12,13,13,49,1.30
2016,12,13,13,50,1.30
2016,12,13,13,51,1.30
2016,12,13,13,52,1.30
2016,12,13,13,53,1.30
2016,12,13,13,54,1.30
2016,12,13,13,55,1.30
2016,12,13,13,56,1.30
2016,12,13,13,57,1.30
2016,12,13,13,58,1.30
2016,12,13,13,59,1.30
2016,12,13,14,00,1.30
2016,12,13,14,01,1.30
2016,12,13,14,02,1.30
2016,12,13,14,03,1.30
2016,12,13,14,04,1.30
2016,12,13,14,05,1.30
2016,12,13,14,06,1.30
2016,12,13,14,07,1.30
2016,12,13,14,08,1.30
2016,12,13,14,09,1.30
2016,12,13,14,10,1.30
2016,12,13,14,11,1.30
2016,12,13,14,12,1.30
2016,12,13,14,13,1.30
2016,12,13,14,14,1.30
2016,12,13,14,15,1.30
2016,12,13,14,16,1.30
2016,12,13,14,17,1.30
2016,12,13,14,18,1.30
2016,12,13,14,19,1.30
2016,12,13,14,20,1.30
2016,12,13,14,21,1.30
2016,12,13,14,22,1.30
2016,12,13,14,23,1.30
2016,12,13,14,24,1.30
2016,12,13,14,25,1.30
2016,12,13,14,26,1.40
2016,12,13,14,27,1.40
2016,12,13,14,28,1.40
2016,12,13,14,29,1.40
2016,12,13,14,30,1.40
2016,12,13,14,31,1.40
2016,12,13,14,32,1.30
2016,12,13,14,33,1.40
2016,12,13,14,34,1.40
2016,12,13,14,35,1.40
2016,12,13,14,36,1.30
2016,12,13,14,37,1.30
2016,12,13,14,38,1.30
2016,12,13,14,39,1.30
2016,12,13,14,40,1.30
2016,12,13,14,41,1.30
2016,12,13,14,42,1.30
2016,12,13,14,43,1.30
2016,12,13,14,44,1.30
2016,12,13,14,45,1.30
2016,12,13,14,46,1.20
2016,12,13,14,47,1.20
2016,12,13,14,48,1.20
2016,12,13,14,49,1.20
2016,12,13,14,50,1.20
2016,12,13,14,51,1.20
2016,12,13,14,52,1.20
2016,12,13,14,53,1.20
2016,12,13,14,54,1.20
2016,12,13,14,55,1.20
2016,12,13,14,56,1.20
2016,12,13,14,57,1.20
2016,12,13,14,58,1.20
2016,12,13,14,59,1.20
2016,12,13,15,00,1.20
2016,12,13,15,01,1.10
2016,12,13,15,02,1.10
2016,12,13,15,03,1.10
2016,12,13,15,04,1.10
2016,12,13,15,05,1.10
2016,12,13,15,06,1.10
2016,12,13,15,07,1.10
2016,12,13,15,08,1.10
2016,12,13,15,09,1.10
2016,12,13,15,10,1.10
2016,12,13,15,11,1.10
2016,12,13,15,12,1.10
2016,12,13,15,13,1.10
2016,12,13,15,14,1.10
2016,12,13,15,15,1.10
2016,12,13,15,16,1.10
2016,12,13,15,17,1.10
2016,12,13,15,18,1.00
2016,12,13,15,19,1.00
2016,12,13,15,20,1.00
2016,12,13,15,21,0.90
2016,12,13,15,22,0.90
2016,12,13,15,23,0.90
2016,12,13,15,24,0.90
2016,12,13,15,25,0.90
2016,12,13,15,26,0.90
2016,12,13,15,27,0.90
2016,12,13,15,28,0.90
2016,12,13,15,29,0.90
2016,12,13,15,30,0.90
2016,12,13,15,31,0.90
2016,12,13,15,32,0.90
2016,12,13,15,33,0.90
2016,12,13,15,34,0.80
2016,12,13,15,35,0.80
2016,12,13,15,36,0.80
2016,12,13,15,37,0.80
2016,12,13,15,38,0.80
2016,12,13,15,39,0.80
2016,12,13,15,40,0.80
2016,12,13,15,41,0.80
2016,12,13,15,42,0.80
2016,12,13,15,43,0.80
2016,12,13,15,44,0.80
